TimePST,TemperatureF,Dew PointF,Humidity,Sea Level PressureIn,VisibilityMPH,Wind Direction,Wind SpeedMPH,Gust SpeedMPH,PrecipitationIn,Events,Conditions,WindDirDegrees,DateUTC
12:08 AM,26.1,24.1,92,30.30,3.0,Calm,Calm,-,N/A,,Clear,0,2012-12-31 08:08:00
12:53 AM,28.0,26.1,92,30.31,9.0,Calm,Calm,-,N/A,,Clear,0,2012-12-31 08:53:00
1:53 AM,28.9,27.0,92,30.33,10.0,WNW,3.5,-,N/A,,Clear,290,2012-12-31 09:53:00
2:53 AM,28.9,27.0,92,30.33,10.0,Calm,Calm,-,N/A,,Clear,0,2012-12-31 10:53:00
3:53 AM,28.9,27.0,92,30.31,10.0,Calm,Calm,-,N/A,,Partly Cloudy,0,2012-12-31 11:53:00
4:47 AM,28.4,26.6,93,30.29,9.0,Calm,Calm,-,N/A,,Mostly Cloudy,0,2012-12-31 12:47:00
4:53 AM,28.0,26.1,92,30.30,10.0,Calm,Calm,-,N/A,,Mostly Cloudy,0,2012-12-31 12:53:00
5:53 AM,30.9,28.9,92,30.29,8.0,South,3.5,-,N/A,,Overcast,170,2012-12-31 13:53:00
6:05 AM,30.9,28.9,92,30.28,6.0,SSE,3.5,-,N/A,,Overcast,150,2012-12-31 14:05:00
6:53 AM,30.0,28.9,96,30.29,3.0,Calm,Calm,-,N/A,,Mostly Cloudy,0,2012-12-31 14:53:00
7:53 AM,30.0,28.0,92,30.30,4.0,Calm,Calm,-,N/A,,Overcast,0,2012-12-31 15:53:00
8:53 AM,30.9,28.9,92,30.31,5.0,Calm,Calm,-,N/A,,Overcast,0,2012-12-31 16:53:00
9:53 AM,30.9,30.0,96,30.32,4.0,Calm,Calm,-,N/A,,Overcast,0,2012-12-31 17:53:00
10:53 AM,30.9,28.9,92,30.33,8.0,WNW,3.5,-,N/A,,Overcast,300,2012-12-31 18:53:00
11:53 AM,32.0,30.9,96,30.33,4.0,WSW,4.6,-,0.01,Snow,Light Snow,240,2012-12-31 19:53:00
12:53 PM,34.0,32.0,92,30.31,5.0,Calm,Calm,-,0.00,Snow,Light Snow,0,2012-12-31 20:53:00
1:00 PM,34.0,30.9,89,30.30,5.0,Calm,Calm,-,0.00,Snow,Light Snow,0,2012-12-31 21:00:00
1:53 PM,35.1,30.9,85,30.30,7.0,Calm,Calm,-,0.00,,Overcast,0,2012-12-31 21:53:00
2:53 PM,35.1,30.9,85,30.32,7.0,NNE,4.6,-,0.00,Snow,Light Snow,20,2012-12-31 22:53:00
3:14 PM,34.0,30.0,85,30.32,2.5,NE,6.9,-,0.00,Snow,Light Snow,40,2012-12-31 23:14:00
3:24 PM,34.0,30.0,85,30.32,4.0,NE,5.8,-,0.00,Snow,Light Snow,50,2012-12-31 23:24:00
3:32 PM,34.0,30.9,89,30.32,2.5,NE,5.8,-,0.00,Snow,Light Snow,50,2012-12-31 23:32:00
3:53 PM,34.0,30.9,89,30.35,2.5,NE,3.5,-,0.00,Snow,Light Snow,50,2012-12-31 23:53:00
4:53 PM,33.1,30.9,92,30.35,2.0,Calm,Calm,-,0.00,Snow,Light Snow,0,2013-01-01 00:53:00
5:44 PM,33.1,32.0,96,30.35,8.0,NW,3.5,-,0.00,,Overcast,310,2013-01-01 01:44:00
6:53 PM,33.1,32.0,96,30.37,7.0,WNW,4.6,-,0.00,,Overcast,300,2013-01-01 02:53:00
8:53 PM,32.0,30.0,92,30.38,10.0,East,5.8,-,0.00,Snow,Light Snow,90,2013-01-01 04:53:00
10:53 PM,30.9,30.0,96,30.43,7.0,North,5.8,-,0.00,,Clear,360,2013-01-01 06:53:00
11:01 PM,32.0,30.0,92,30.42,8.0,North,5.8,-,N/A,,Scattered Clouds,10,2013-01-01 07:01:00
11:53 PM,32.0,28.9,88,30.45,8.0,NNE,6.9,-,N/A,,Clear,20,2013-01-01 07:53:00